TimeEDT,TemperatureF,Dew PointF,Humidity,Sea Level PressureIn,VisibilityMPH,Wind Direction,Wind SpeedMPH,Gust SpeedMPH,PrecipitationIn,Events,Conditions,WindDirDegrees,DateUTC
12:55 AM,35.6,24.8,65,30.01,10.0,WNW,4.6,-,N/A,,Clear,300,2012-11-03 04:55:00
1:15 AM,35.6,26.6,70,30.01,10.0,NW,4.6,-,N/A,,Clear,310,2012-11-03 05:15:00
1:35 AM,35.6,26.6,70,30.01,10.0,NW,5.8,-,N/A,,Clear,320,2012-11-03 05:35:00
1:55 AM,33.8,26.6,75,30.01,10.0,NNW,3.5,-,N/A,,Clear,330,2012-11-03 05:55:00
2:15 AM,33.8,26.6,75,30.01,10.0,NNW,3.5,-,N/A,,Clear,340,2012-11-03 06:15:00
2:35 AM,33.8,26.6,75,30.01,10.0,Calm,Calm,-,N/A,,Clear,0,2012-11-03 06:35:00
2:55 AM,32.0,24.8,75,30.01,10.0,Calm,Calm,-,N/A,,Clear,0,2012-11-03 06:55:00
3:15 AM,33.8,26.6,75,30.02,10.0,Calm,Calm,-,N/A,,Clear,0,2012-11-03 07:15:00
3:35 AM,33.8,26.6,75,30.02,10.0,Calm,Calm,-,N/A,,Clear,0,2012-11-03 07:35:00
3:55 AM,33.8,26.6,75,30.02,10.0,West,3.5,-,N/A,,Clear,270,2012-11-03 07:55:00
4:15 AM,33.8,26.6,75,30.02,10.0,WNW,3.5,-,N/A,,Clear,290,2012-11-03 08:15:00
4:35 AM,33.8,26.6,75,30.03,10.0,West,4.6,-,N/A,,Clear,270,2012-11-03 08:35:00
4:55 AM,32.0,26.6,80,30.03,10.0,Calm,Calm,-,N/A,,Clear,0,2012-11-03 08:55:00
5:15 AM,32.0,26.6,80,30.04,10.0,Calm,Calm,-,N/A,,Clear,0,2012-11-03 09:15:00
5:35 AM,32.0,26.6,80,30.04,10.0,Calm,Calm,-,N/A,,Clear,0,2012-11-03 09:35:00
5:55 AM,32.0,26.6,80,30.05,10.0,Calm,Calm,-,N/A,,Clear,0,2012-11-03 09:55:00
6:15 AM,32.0,26.6,80,30.06,10.0,West,3.5,-,N/A,,Clear,270,2012-11-03 10:15:00
6:35 AM,33.8,26.6,75,30.07,10.0,West,4.6,-,N/A,,Clear,270,2012-11-03 10:35:00
6:55 AM,32.0,26.6,80,30.08,10.0,West,4.6,-,N/A,,Clear,260,2012-11-03 10:55:00
7:15 AM,32.0,26.6,80,30.08,10.0,Calm,Calm,-,N/A,,Clear,0,2012-11-03 11:15:00
7:35 AM,32.0,26.6,80,30.08,10.0,West,4.6,-,N/A,,Clear,270,2012-11-03 11:35:00
7:55 AM,32.0,26.6,80,30.09,10.0,West,4.6,-,N/A,,Clear,270,2012-11-03 11:55:00
8:15 AM,33.8,26.6,75,30.09,10.0,West,3.5,-,N/A,,Clear,270,2012-11-03 12:15:00
8:35 AM,33.8,26.6,75,30.09,10.0,Calm,Calm,-,N/A,,Clear,0,2012-11-03 12:35:00
8:55 AM,33.8,26.6,75,30.10,10.0,Calm,Calm,-,N/A,,Clear,0,2012-11-03 12:55:00
9:15 AM,35.6,26.6,70,30.10,10.0,Calm,Calm,-,N/A,,Clear,0,2012-11-03 13:15:00
9:35 AM,37.4,26.6,65,30.11,10.0,Calm,Calm,-,N/A,,Clear,0,2012-11-03 13:35:00
9:55 AM,37.4,26.6,65,30.12,10.0,Calm,Calm,-,N/A,,Clear,0,2012-11-03 13:55:00
10:15 AM,39.2,28.4,65,30.11,10.0,Calm,Calm,-,N/A,,Clear,0,2012-11-03 14:15:00
10:35 AM,37.4,26.6,65,30.11,10.0,Calm,Calm,-,N/A,,Clear,0,2012-11-03 14:35:00
10:55 AM,39.2,28.4,65,30.11,10.0,Calm,Calm,-,N/A,,Clear,0,2012-11-03 14:55:00
11:15 AM,39.2,28.4,65,30.11,10.0,Variable,3.5,-,N/A,,Clear,0,2012-11-03 15:15:00
11:35 AM,39.2,28.4,65,30.11,10.0,Calm,Calm,-,N/A,,Clear,0,2012-11-03 15:35:00
11:55 AM,42.8,28.4,57,30.10,10.0,NW,4.6,-,N/A,,Clear,310,2012-11-03 15:55:00
12:15 PM,44.6,30.2,57,30.11,10.0,NW,4.6,-,N/A,,Clear,310,2012-11-03 16:15:00
12:35 PM,46.4,28.4,50,30.10,10.0,West,5.8,-,N/A,,Clear,260,2012-11-03 16:35:00
12:55 PM,46.4,30.2,53,30.10,10.0,WSW,6.9,-,N/A,,Clear,250,2012-11-03 16:55:00
1:15 PM,46.4,30.2,53,30.10,10.0,Variable,3.5,-,N/A,,Clear,0,2012-11-03 17:15:00
1:35 PM,48.2,30.2,50,30.08,10.0,Variable,5.8,-,N/A,,Clear,0,2012-11-03 17:35:00
1:55 PM,48.2,30.2,50,30.07,10.0,Calm,Calm,-,N/A,,Partly Cloudy,0,2012-11-03 17:55:00
2:15 PM,48.2,30.2,50,30.06,10.0,Variable,3.5,-,N/A,,Mostly Cloudy,0,2012-11-03 18:15:00
2:35 PM,48.2,28.4,46,30.05,10.0,Calm,Calm,-,N/A,,Partly Cloudy,0,2012-11-03 18:35:00
2:55 PM,50.0,28.4,43,30.05,10.0,Variable,3.5,-,N/A,,Clear,0,2012-11-03 18:55:00
3:15 PM,50.0,28.4,43,30.04,10.0,Calm,Calm,-,N/A,,Partly Cloudy,0,2012-11-03 19:15:00
3:35 PM,50.0,28.4,43,30.04,10.0,Variable,4.6,-,N/A,,Partly Cloudy,0,2012-11-03 19:35:00
3:55 PM,50.0,28.4,43,30.04,10.0,Calm,Calm,-,N/A,,Scattered Clouds,0,2012-11-03 19:55:00
4:15 PM,50.0,28.4,43,30.05,10.0,Calm,Calm,-,N/A,,Partly Cloudy,0,2012-11-03 20:15:00
4:35 PM,48.2,28.4,46,30.04,10.0,NNW,4.6,-,N/A,,Partly Cloudy,330,2012-11-03 20:35:00
4:55 PM,48.2,28.4,46,30.04,10.0,North,3.5,-,N/A,,Partly Cloudy,350,2012-11-03 20:55:00
5:15 PM,48.2,28.4,46,30.03,10.0,Calm,Calm,-,N/A,,Scattered Clouds,0,2012-11-03 21:15:00
5:35 PM,46.4,28.4,50,30.02,10.0,Calm,Calm,-,N/A,,Mostly Cloudy,0,2012-11-03 21:35:00
5:55 PM,46.4,28.4,50,30.02,10.0,Calm,Calm,-,N/A,,Overcast,0,2012-11-03 21:55:00
6:15 PM,46.4,28.4,50,30.01,10.0,Calm,Calm,-,N/A,,Overcast,0,2012-11-03 22:15:00
6:35 PM,46.4,30.2,53,30.01,10.0,Calm,Calm,-,N/A,,Overcast,0,2012-11-03 22:35:00
6:55 PM,46.4,30.2,53,30.00,10.0,Calm,Calm,-,N/A,,Mostly Cloudy,0,2012-11-03 22:55:00
7:15 PM,46.4,30.2,53,30.00,10.0,Calm,Calm,-,N/A,,Mostly Cloudy,0,2012-11-03 23:15:00
7:35 PM,44.6,30.2,57,30.00,10.0,NNE,5.8,-,N/A,,Mostly Cloudy,30,2012-11-03 23:35:00
7:55 PM,44.6,30.2,57,30.00,10.0,East,3.5,-,N/A,,Mostly Cloudy,100,2012-11-03 23:55:00
8:15 PM,44.6,30.2,57,29.99,10.0,East,3.5,-,N/A,,Mostly Cloudy,80,2012-11-04 00:15:00
8:35 PM,44.6,30.2,57,29.99,10.0,NNE,4.6,-,N/A,,Mostly Cloudy,30,2012-11-04 00:35:00
8:55 PM,44.6,32.0,61,30.01,10.0,North,6.9,-,N/A,,Mostly Cloudy,10,2012-11-04 00:55:00
9:15 PM,41.0,35.6,81,30.06,7.0,NE,9.2,-,N/A,,Mostly Cloudy,40,2012-11-04 01:15:00
9:35 PM,37.4,37.4,100,30.02,10.0,East,11.5,-,N/A,,Mostly Cloudy,80,2012-11-04 01:35:00
9:55 PM,39.2,39.2,100,30.09,10.0,NW,10.4,-,N/A,,Mostly Cloudy,320,2012-11-04 01:55:00
10:15 PM,37.4,37.4,100,30.07,8.0,Variable,4.6,-,N/A,,Mostly Cloudy,0,2012-11-04 02:15:00
10:35 PM,37.4,37.4,100,30.04,10.0,Variable,5.8,-,N/A,,Mostly Cloudy,0,2012-11-04 02:35:00
10:55 PM,37.4,37.4,100,30.03,6.0,SE,6.9,-,N/A,,Overcast,130,2012-11-04 02:55:00
11:15 PM,37.4,37.4,100,30.01,4.0,SE,5.8,-,N/A,,Overcast,140,2012-11-04 03:15:00
11:35 PM,39.2,39.2,100,30.01,8.0,South,4.6,-,N/A,,Mostly Cloudy,180,2012-11-04 03:35:00
11:55 PM,39.2,39.2,100,29.99,8.0,SE,4.6,-,N/A,,Mostly Cloudy,140,2012-11-04 03:55:00